     2              Observation         GPS                 RINEX VERSION / TYPE
ASRINEXO V2.2.0 UX USGS 05-JUL-94 10:39                     PGM / RUN BY / DATE
                                                            COMMENT
Original Marker Name: 7542 70542_1968_San_Ber._Co.          COMMENT
Campaign Name: USGS-Landers Level                           COMMENT
4-Character Station Name: 7542                              COMMENT
6-Character Antenna Code: ASHL12                            COMMENT
Vertical Measurement Point: BBE                             COMMENT
Vertical Offset to Rinex Ref. Point: 0.0595                 COMMENT
Radial Measurement Point: EGP                               COMMENT
Radial Offset to Rinex Ref. Point: 0.1424                   COMMENT
Antenna Height from Field Measurement: 1.2770 m             COMMENT
Additional Antenna Identification Info.:                    COMMENT
Original Ashtech L1/L2                                      COMMENT
Revised Rinex header created by UCSD GPS archive for        COMMENT
SCEC DC on 17-Mar-2000 (2000.077) 18:21:19 GMT              COMMENT
For assistance contact dagnew@ucsd.edu or hjohnson@ucsd.edu COMMENT
                                                            COMMENT
7542 70542_1968_SAN_BER._CO.                                MARKER NAME
                                                            MARKER NUMBER
GDH US GEOLOGICAL SURVEY                                    OBSERVER / AGENCY
225 ASHTECH LM-XII3 6G                                      REC # / TYPE / VERS
733 ASHTECH GEODETIC L                                      ANT # / TYPE
 -2350989.7000 -4721123.7300  3575817.4200                  APPROX POSITION XYZ
        1.2095        0.0000        0.0000                  ANTENNA: DELTA H/E/N
     1     1     0                                          WAVELENGTH FACT L1/2
     5    C1    L1    L2    P1    P2                        # / TYPES OF OBSERV
    30                                                      INTERVAL
  1992     8     4     2    33   30.000000                  TIME OF FIRST OBS
  1992     8     4     3    31    0.000000                  TIME OF LAST OBS
                                                            END OF HEADER
 92  8  4  2 33 30.0000000  0  4  3 11 23 17
  28874076.643     -609589.154 5     14355.53816  24377207.041    24377209.979
  28525741.580     4578192.762 5   3602951.134 6  24028873.327    24028873.027
  25765390.711       -3033.23118  -7027632.59819  21268523.418    21268522.129
  26286506.120     -197727.312 6  -2249815.895 8  21789636.309    21789634.720
 92  8  4  2 34  0.0000000  0  4  3 11 23 17
  24402560.669        5016.87215     62327.63416  24402579.766    24402582.614
  24009559.078       -4132.25615     -3220.22016  24009581.712    24009582.162
  21277394.816       36591.27918     28513.11919  21277414.692    21277413.193
  21802014.799        2469.49417      1924.83119  21802034.256    21802033.446
 92  8  4  2 34 30.0000000  0  6  3 11 28 21 23 17
  24427911.539      138211.044 5    166115.073 5  24427926.049    24427929.137
  23990270.821     -105507.836 5    -82214.100 6  23990290.188    23990290.068
  21408344.132      238706.79418   4820937.86119  21408364.248    21408361.820
  20852770.667    -1942476.19119  -1522367.45219                  20852787.486
  21286267.833       83217.537 8     64845.272 9  21286287.860    21286285.851
  21814421.260       67656.562 7     52719.933 9  21814439.188    21814438.259
 92  8  4  2 35  0.0000000  0  6  3 11 28 21 23 17
  24453199.123      271114.218 5    269675.730 5  24453216.361    24453219.688
  23970926.893     -207144.369 5   -161411.336 6  23970949.257    23970949.107
  21405261.546      222504.090 8   4808312.382 9  21405280.882    21405278.394
  20849561.149    -1961806.05318  -1535499.992 9  20849582.165    20849580.636
  21295082.841      129538.845 8    100939.789 9  21295102.567    21295100.379
  21826796.363      132700.783 7    103403.725 9  21826816.479    21826815.880
 92  8  4  2 35 30.0000000  0  6  3 11 28 21 23 17
  24478457.057      403850.726 5    373106.541 5  24478476.184    24478479.002
  23951564.257     -308911.324 5   -240710.207 6  23951583.923    23951583.114
  21402235.561      206599.264 8   4795919.010 9  21402254.268    21402251.600
  20846341.168    -1978731.589 8  -1548688.724 9  20846361.464    20846360.055
  21303862.893      175680.133 8    136894.043 9  21303882.859    21303880.850
  21839169.907      197732.929 7    154078.108 9  21839191.912    21839191.073
 92  8  4  2 36  0.0000000  0  6  3 11 28 21 23 17
  24503690.198      536477.828 5    476452.118 6  24503713.672    24503717.389
  23932187.921     -410745.226 6   -320061.234 6  23932205.549    23932205.819
  21399271.902      191043.316 8   4783797.492 9  21399293.937    21399291.389
  20843118.070    -1995678.457 8  -1561894.045 9  20843136.867    20843135.098
  21312622.498      221707.296 8    172759.364 9  21312641.325    21312639.647
  21851554.574      262813.721 7    204790.389 9  21851576.129    21851575.079
 92  8  4  2 36 30.0000000  0  6  3 11 28 21 23 17
  24528915.725      669036.248 5    579744.147 6  24528938.809    24528942.796
  23912801.032     -512599.442 6   -399428.105 6  23912823.097    23912822.228
  21396382.173      175847.189 8   4771956.357 9  21396401.989    21396400.190
  20839896.170    -2012611.873 8  -1575088.887 9  20839914.397    20839912.689
  21321367.534      267675.580 8    208578.790 9  21321388.910    21321387.231
  21863959.866      328002.026 7    255586.454 9  21863980.971    21863979.712
 92  8  4  2 37  0.0000000  0  6  3 11 28 21 23 17
  24554131.718      801530.164 5    682985.917 5  24554152.284    24554156.571
  23893419.990     -614463.190 6   -478802.423 6  23893439.926    23893438.966
  21393566.912      161037.074 8   4760416.007 9  21393583.610    21393581.602
  20836676.129    -2029518.984 8  -1588263.228 9  20836697.295    20836695.496
  21330107.714      313609.716 8    244371.614 9  21330130.258    21330128.190
  21876384.914      393303.144 7    306470.422 9  21876407.788    21876406.949
 92  8  4  2 37 30.0000000  0  6  3 11 28 21 23 17
  24579340.726     -985025.93214                                  24579361.892
  23874036.638     -716319.088 6   -558170.615 5  23874056.934    23874054.686
  21390829.417      146652.904 8   4749207.560 9  21390846.415    21390844.826
  20833468.200    -2046378.941 8  -1601400.857 9  20833488.766    20833486.877
  21338850.351      359540.422 8    280161.756 9  21338870.557    21338868.399
  21888831.427      458716.731 7    357442.001 9  21888854.781    21888853.702
 92  8  4  2 38  0.0000000  0  6  3 11 28 21 23 17
  24604525.991     -852617.274 5                                  24604551.054
  23854658.653     -818139.879 6   -637511.468 6  23854680.868    23854680.478
  21388173.945      132736.331 8   4738363.464 9  21388198.648    21388196.759
  20830272.263    -2063171.239 8  -1614485.725 9  20830293.338    20830291.569
  21347591.820      405479.307 8    315958.300 9  21347612.355    21347610.047
  21901305.792      524252.354 7    408508.711 9  21901326.507    21901325.038
 92  8  4  2 38 30.0000000  0  6  3 11 28 21 23 17
  24629722.528     -720240.917 5   -767545.09515  24629742.194    24629747.561
  23835290.742     -919919.812 6   -716820.453 6  23835312.866    23835312.147
  21385623.371      119305.841 8   4727898.138 9  21385642.738    21385641.179
  20827095.212    -2079872.719 8  -1627499.845 9  20827114.908    20827113.020
  21356331.220      451412.667 8    351750.514 9  21356353.434    21356351.186
  21913800.452      589900.083 7    459662.765 9  21913819.219    21913817.900
 92  8  4  2 39  0.0000000  0  6  3 11 28 21 23 17
  24654906.953     -587896.512 5   -664419.824 5  24654926.440    24654931.236
  23815931.254    -1021652.396 6   -796092.558 6  23815953.379    23815953.319
  21383166.482      106394.356 8   4717837.228 9  21383185.789    21383183.870
  20823937.948    -2096468.207 8  -1640431.370 9  20823957.074    20823955.396
  21365072.238      497333.857 8    387533.252 9  21365091.845    21365089.476
  21926311.301      655645.842 7    510893.198 8  21926329.798    21926328.748
 92  8  4  2 39 30.0000000  0  6  3 11 28 21 23 17
  24680086.492     -455581.981 5   -561317.816 5  24680105.109    24680109.546
  23796583.068    -1123328.971 6   -875320.992 7  23796604.893    23796604.593
  21380805.676       93989.382 8   4708170.995 9  21380825.223    21380823.154
  20820801.549    -2112947.550 8  -1653272.391 9  20820820.946    20820819.417
  21373806.272      543228.471 8    423295.280 9  21373825.518    21373823.240
  21938839.627      721486.360 7    562197.476 9  21938858.724    21938857.825
 92  8  4  2 40  0.0000000  0  6  3 11 28 21 23 17
  24705261.264     -323294.809 5   -458237.156 5  24705279.611    24705283.448
  23777248.913    -1224941.021 6   -954499.169 7  23777268.669    23777268.310
  21378539.785       82074.761 8   4698886.855 9  21378557.892    21378556.393
  20817688.924    -2129303.556 8  -1666017.307 9  20817708.260    20817706.672
  21382532.091      589090.978 8    459032.296 9  21382552.567    21382550.109
  21951388.190      787431.959 7    613583.637 9  21951407.767    21951406.777
 92  8  4  2 40 30.0000000  0  6  3 11 28 21 23 17
  24730431.688     -191031.725 5   -355175.271 5  24730448.627    24730452.374
  23757928.668    -1326478.983 6  -1033619.568 7  23757946.146    23757946.686
  21376366.889       70647.815 8   4689982.726 9  21376383.528    21376382.268
  20814600.822    -2145538.703 8  -1678668.048 9  20814619.199    20814617.490
  21391257.491      634947.008 8    494764.271 9  21391278.386    21391276.467
  21963965.023      853511.605 7    665074.243 8  21963982.351    21963981.392
 92  8  4  2 41  0.0000000  0  6  3 11 28 21 23 17
  24755595.008      -58789.510 5   -381460.60715  24755613.236    24755616.443
  23738619.186    -1427933.378 6  -1112674.887 6  23738640.681    23738640.051
  21374281.863       59692.927 8   4681446.443 9  21374298.591    21374296.582
  20811528.848    -2161670.919 8  -1691238.578 9  20811549.294    20811547.585
  21399986.638      680809.459 8    530501.244 9  21400005.764    21400003.636
  21976571.806      919750.624 7    716689.049 8  21976587.545    21976585.836
 92  8  4  2 41 30.0000000  0  6  3 11 28 21 23 17
  24780750.713       73435.153 5   -278428.663 5  24780774.547    24780778.804
  23719331.558    -1529294.711 6  -1191657.680 7  23719352.034    23719351.135
  21372280.298       49196.200 8   4673267.162 9  21372301.104    21372299.305
  20808477.651    -2177705.654 8  -1703733.161 9  20808497.557    20808496.208
  21408718.872      726695.332 8    566256.463 9  21408737.819    21408735.811
  21989205.390      986178.614 7    768451.100 8  21989228.264    21989227.155
 92  8  4  2 42  0.0000000  0  6  3 11 28 21 23 17
  24805911.994      205646.027 5   -206068.46215  24805934.509    24805938.256
  23700063.717    -1630552.886 6  -1270560.100 7  23700083.294    23700082.904
  21370375.357       39174.087 8   4665457.718 9  21370394.214    21370392.595
  20805447.079    -2193642.369 8  -1716151.366 9  20805464.886    20805463.747
  21417457.763      772620.792 8    602042.537 9  21417477.399    21417475.210
  22001889.939     1052817.720 7    820377.652 8  22001909.245    22001908.166
 92  8  4  2 42 30.0000000  0  6  3 11 28 21 23 17
  24831070.757      337845.967 5    -41208.76115  24831090.634    24831094.951
  23680814.943    -1731699.053 6  -1349375.248 7  23680835.868    23680834.819
  21368559.664       29634.023 8   4658023.890 9  21368578.491    21368577.232
  20802432.935    -2209479.606 8  -1728492.053 9  20802451.403    20802449.754
  21426203.398      818576.473 8    637852.155 9  21426222.045    21426220.516
  22014610.882     1119672.213 7    872472.030 8  22014630.698    22014630.069
 92  8  4  2 43  0.0000000  0  5 11 28 21 23 17
  23661592.281    -1832722.561 6  -1428094.820 6  23661611.797    23661610.328
  21366837.146       20579.622 8   4650968.520 9  21366855.943    21366854.085
  20799440.767    -2225202.104 8  -1740743.330 9  20799459.204    20799457.645
  21434953.500      864557.179 8    673681.277 9  21434972.267    21434970.409
  22027374.486     1186732.157 7    924726.510 8  22027391.694    22027391.454
 92  8  4  2 43 30.0000000  0  5 11 28 21 23 17
  23642391.593    -1933617.555 6  -1506714.225 7  23642412.129    23642410.959
  21365207.295       12032.715 8   4644308.598 9  21365229.090    21365227.771
  20796473.811    -2240798.730 8  -1752896.532 9  20796491.469    20796489.760
  21443706.961      910563.655 8    709530.476 9  21443726.987    21443724.738
  22040171.217     1253978.096 7    977125.916 8  22040188.845    22040188.005
 92  8  4  2 44  0.0000000  0  5 11 28 21 23 17
  23623219.955    -2034374.645 6  -1585226.150 7  23623237.913    23623237.613
  21363682.700        4013.767 8   4638060.069 9  21363703.056    21363701.377
  20793533.117    -2256254.161 8  -1764939.707 9  20793550.624    20793548.706
  21452464.978      956588.167 8    745393.741 9  21452485.543    21452483.325
  22052996.788     1321392.150 7   1029656.321 8  22053017.144    22053016.275
 92  8  4  2 44 30.0000000  0  5 11 28 21 23 17
  23604072.271    -2134986.952 6  -1663625.268 7  23604092.297    23604091.697
  21362262.583       -3465.855 8   4632231.802 9  21362279.971    21362278.382
  20790616.166    -2271569.010 8  -1776873.347 9  20790636.252    20790634.333
  21461228.840     1002640.928 8    781279.007 9  21461248.597    21461246.498
  22065860.403     1388969.136 7   1082313.685 8  22065876.771    22065875.692
 92  8  4  2 45  0.0000000  0  5 11 28 21 23 17
  23584955.135    -2235447.402 6  -1741906.043 7  23584974.922    23584974.892
  21360943.437      -10386.147 8   4626839.391 9  21360963.193    21360961.304
  20787729.794    -2286733.909 8  -1788690.135 9  20787750.210    20787748.381
  21470002.896     1048754.596 8    817211.746 9  21470023.612    21470021.753
  22078752.708     1456714.734 7   1135102.441 8  22078768.627    22078767.128
 92  8  4  2 45 30.0000000  0  6 12 11 28 21 23 17
  24613226.778       19597.22414                                  24613242.966
  23565866.930    -2335747.786 6  -1820062.094 7  23565888.725    23565888.335
  21359733.025      -16737.530 8   4621890.280 9  21359754.640    21359752.601
  20784874.211    -2301740.794 8  -1800383.798 9  20784894.567    20784892.918
  21478790.803     1094929.942 8    853192.542 9  21478810.199    21478808.670
  22091676.401     1524638.188 7   1188029.778 8  22091693.549    22091692.619
 92  8  4  2 46  0.0000000  0  6 12 11 28 21 23 17
  24600869.153      -45365.757 4                                  24600881.624
  23546817.098    -2435877.607 6  -1898085.266 7  23546834.516    23546834.006
  21358635.514      -22518.208 8   4617385.876 9  21358654.221    21358652.543
  20782051.815    -2316584.938 8  -1811950.659 9  20782069.862    20782068.064
  21487590.671     1141171.006 8    889224.543 9  21487609.737    21487607.999
  22104640.776     1592769.103 7   1241118.772 8  22104658.283    22104657.744
 92  8  4  2 46 30.0000000  0  6 12 11 28 21 23 17
  24588544.805     -110082.822 4                                  24588566.869
  23527795.596    -2535833.048 6  -1975972.568 7  23527813.763    23527813.284
  21357639.784      -27742.406 8   4613315.098 9  21357660.020    21357658.611
  20779256.760    -2331273.255 8  -1823396.093 9  20779274.717    20779273.278
  21496406.398     1187487.276 7    925315.150 9  21496423.186    21496421.897
  22117647.601     1661115.701 7   1294375.829 8  22117664.539    22117663.970
 92  8  4  2 47  0.0000000  0  6 12 11 28 21 23 17
  24576291.717     -174549.878 4                                  24576299.602
  23508808.630    -2635610.345 6  -2053721.049 6  23508826.708    23508825.359
  21356751.439      -32427.275 8   4609664.564 9  21356768.737    21356766.998
  20776492.494    -2345796.451 8  -1834712.863 9  20776510.991    20776509.672
  21505228.390     1233867.734 8    961455.767 9  21505249.526    21505247.787
  22130696.008     1729679.664 7   1347802.265 8  22130712.017    22130711.237
 92  8  4  2 47 30.0000000  0  6 12 11 28 21 23 17
  24564053.889     -238758.155 4                                  24564079.642
  23489854.402    -2735201.126 6  -2131324.198 7  23489875.148    23489874.788
  21355955.759      -36583.780 8   4606425.745 9  21355977.584    21355976.085
  20773757.367    -2360158.963 8  -1845904.417 9  20773777.603    20773776.074
  21514067.621     1280301.643 8    997638.041 9  21514085.519    21514083.390
  22143779.940     1798469.810 7   1401404.944 8  22143802.275    22143801.465
 92  8  4  2 48  0.0000000  0  6 12 11 28 21 23 17
  24551897.125     -302701.363 4                                  24551911.545
  23470940.286    -2834598.822 6  -2208776.874 7  23470960.162    23470959.833
  21355267.706      -40213.575 8   4603597.340 9  21355287.012    21355285.214
  20771056.057    -2374366.524 8  -1856975.235 9  20771074.225    20771072.756
  21522914.916     1326804.713 8   1033874.199 9  21522934.732    21522932.634
  22156918.405     1867490.353 7   1455187.152 8  22156936.722    22156935.433
 92  8  4  2 48 30.0000000  0  6 12 11 28 21 23 17
  24539768.152     -366374.543 4                                  24539794.054
  23452061.935    -2933799.192 6  -2286075.789 6  23452082.831    23452081.842
  21354674.117      -43317.145 8   4601178.986 9  21354695.912    21354694.593
  20768383.197    -2388414.163 8  -1867921.438 9  20768401.065    20768399.626
  21531774.233     1373377.110 8   1070164.371 9  21531797.377    21531795.248
  22170087.088     1936732.069 7   1509141.700 8  22170112.630    22170111.881
 92  8  4  2 49  0.0000000  0  6 12 11 28 21 23 17
  24527708.311     -429771.562 4                                  24527730.046
  23433222.887    -3032796.005 6  -2363216.097 7  23433244.412    23433243.123
  21354188.213      -45883.793 8   4599179.012 9  21354207.999    21354206.171
  20765737.949    -2402297.908 8  -1878739.927 9  20765759.294    20765757.285
  21540652.197     1420007.302 8   1106499.603 9  21540670.634    21540668.416
  22183315.041     2006211.120 7   1563281.197 8  22183333.957    22183332.878
 92  8  4  2 49 30.0000000  0  6 12 11 28 21 23 17
  24515701.173     -492886.594 4                                  24515718.621
  23414427.609    -3131583.606 6  -2440193.367 7  23414445.327    23414443.978
  21353804.719      -47894.463 8   4597612.264 9  21353824.865    21353823.426
  20763128.525    -2416025.033 8  -1889436.378 9  20763147.112    20763145.464
  21549533.309     1466698.120 8   1142882.070 9  21549555.403    21549553.365
  22196579.208     2075929.268 7   1617606.999 8  22196601.123    22196599.654
 92  8  4  2 50  0.0000000  0  6 12 11 28 21 23 17
  24503734.687     -555715.684 4                                  24503761.399
  23395667.676    -3230158.121 6  -2517004.627 7  23395687.433    23395685.964
  21353531.098      -49332.880 8   4596491.422 9  21353551.544    21353549.895
  20760549.740    -2429583.503 8  -1900001.407 9  20760566.649    20760565.210
  21558433.937     1513449.995 8   1179312.104 9  21558452.014    21558450.335
  22209891.642     2145873.734 7   1672109.164 8  22209911.039    22209910.319
 92  8  4  2 50 30.0000000  0  6 12 11 28 21 23 17
  24491837.664     -618250.465 4                                  24491863.176
  23376951.933    -3328511.386 6  -2593643.481 7  23376971.629    23376970.640
  21353367.411      -50181.274 8   4595830.333 9  21353390.435    21353388.217
  20758003.393    -2442955.025 8  -1910420.766 9  20758022.250    20758020.481
  21567339.841     1560263.660 8   1215790.285 9  21567359.927    21567358.219
  22223246.796     2216044.990 7   1726788.034 8  22223264.334    22223263.195
 92  8  4  2 51  0.0000000  0  6 12 11 28 21 23 17
  24480005.395     -680482.926 5     -4094.96015  24480022.603    24480023.053
  23358279.270    -3426635.538 6  -2670103.794 7  23358299.206    23358297.947
  21353325.680      -50423.142 8   4595641.866 9  21353344.507    21353342.619
  20755493.381    -2456127.759 8  -1920685.226 9  20755515.745    20755514.217
  21576265.083     1607152.705 8   1252327.212 9  21576282.710    21576281.061
  22236644.761     2286442.347 6   1781643.088 8  22236660.260    22236659.751
 92  8  4  2 51 30.0000000  0  6 12 11 28 21 23 17
  24468225.860     -742403.316 4    -52344.547 5  24468240.250    24468240.999
  23339656.072    -3524520.960 6  -2746378.086 7  23339671.392    23339671.122
  21353392.024      -50049.875 8   4595932.713 9  21353415.678    21353413.999
  20753032.565    -2469085.351 9  -1930782.033 9  20753050.012    20753048.334
  21585202.765     1654137.118 8   1288938.440 9  21585223.571    21585222.252
  22250072.705     2357051.087 6   1836662.857 8  22250096.599    22250095.969
 92  8  4  2 52  0.0000000  0  6 12 11 28 21 23 17
  24456496.360     -804008.760 5   -100348.722 5  24456516.176    24456516.686
  23321071.008    -3622164.851 6  -2822464.150 7  23321090.465    23321090.135
  21353581.733      -49073.036 8   4596693.887 9  21353601.279    21353599.481
  20750609.342    -2481813.833 8  -1940700.311 9  20750627.929    20750625.651
  21594161.523     1701216.217 8   1325623.444 9  21594182.718    21594181.010
  22263554.402     2427870.956 7   1891847.144 8  22263573.559    22263573.229
 92  8  4  2 52 30.0000000  0  6 12 11 28 21 23 17
  24444837.701     -865290.853 4   -148100.924 5  24444854.190    24444855.928
  23302535.770    -3719558.762 6  -2898355.434 7  23302556.995    23302556.546
  21353880.266      -47500.059 8   4597919.577 9  21353900.532    21353898.554
  20748228.600    -2494321.028 8  -1950446.164 9  20748247.487    20748245.688
  21603142.496     1748394.038 8   1362385.380 9  21603160.753    21603158.415
  22277072.284     2498914.711 6   1947205.883 8  22277092.820    22277092.040
 92  8  4  2 53  0.0000000  0  6 12 11 28 21 23 17
  24433244.007     -926183.681 5   -195549.810 5  24433267.031    24433266.671
  23284062.499    -3816636.984 6  -2974000.746 7  23284083.484    23284082.645
  21354299.346      -45283.464 8   4599646.781 9  21354322.730    21354320.362
  20745897.414    -2506566.194 8  -1959987.830 9  20745917.500    20745915.911
  21612143.974     1795723.681 8   1399265.623 9  21612167.388    21612164.900
  22290643.888     2570242.574 7   2002786.014 8  22290665.443    22290664.964
 92  8  4  2 53 30.0000000  0  6 12 11 28 21 23 17
  24421674.057     -986959.372 5   -242907.413 5  24421699.629    24421702.057
  23265597.892    -3913671.788 6  -3049612.219 7  23265618.697    23265618.038
  21354792.085      -42719.479 8   4601644.678 9  21354810.432    21354808.124
  20743559.812    -2518847.678 8  -1969557.798 9  20743580.318    20743578.549
  21621128.124     1842919.317 8   1436041.444 9  21621148.390    21621145.902
  22304216.842     2641584.390 7   2058377.018 8  22304241.215    22304240.526
 92  8  4  2 54  0.0000000  0  6 12 11 28 21 23 17
  24410185.260    -1047356.780 5   -289970.278 5  24410207.295    24410209.484
  23247190.725    -4010401.846 6  -3124986.251 7  23247211.740    23247210.601
  21355391.130      -39551.389 8   4604113.315 9  21355413.285    21355411.486
  20741263.012    -2530932.123 8  -1978974.222 9  20741280.940    20741278.722
  21630131.072     1890227.946 8   1472905.309 9  21630150.558    21630148.400
  22317850.354     2713216.283 6   2114194.045 8  22317872.658    22317871.669
 92  8  4  2 54 30.0000000  0  6 12 11 28 21 23 17
  24398767.275    -1107386.495 5      3138.38514  24398782.894    24398784.183
  23228840.578    -4106837.917 6  -3200131.178 7  23228860.485    23228860.005
  21356111.022      -35786.348 8   4607047.104 9  21356129.879    21356127.960
  20738994.963    -2542851.858 8  -1988262.303 9  20739012.321    20739010.672
  21639148.589     1937630.492 8   1509842.347 9  21639170.624    21639169.035
  22331536.509     2785125.479 7   2170227.165 8  22331556.445    22331555.516
 92  8  4  2 55  0.0000000  0  6 12 11 28 21 23 17
  24387406.880    -1167050.227 4     50414.23615  24387428.555    24387430.803
  23210546.493    -4202981.684 6  -3275048.334 8  23210564.960    23210563.791
  21356942.376      -31426.044 8   4610444.736 9  21356959.704    21356957.426
  20736756.682    -2554604.850 8  -1997420.458 9  20736775.959    20736774.100
  21648186.492     1985117.662 8   1546845.329 9  21648206.998    21648205.649
  22345277.706     2857315.643 7   2226479.211 8  22345294.255    22345293.145
 92  8  4  2 55 30.0000000  0  6 12 11 28 21 23 17
  24376123.171    -1226344.423 4    -19976.00915  24376146.045    24376147.994
  23192304.781    -4298829.668 6  -3349734.985 7  23192325.347    23192324.958
  21357884.594      -26463.317 8   4614311.792 9  21357903.601    21357901.592
  20734555.756    -2566166.641 8  -2006429.624 9  20734576.052    20734574.193
  21657238.276     2032693.173 8   1583917.162 9  21657260.670    21657258.662
  22359063.692     2929792.726 7   2282954.834 8  22359086.027    22359084.978
 92  8  4  2 56  0.0000000  0  6 12 11 28 21 23 17
  24364912.522    -1285262.477 4    -65886.115 5  24364934.227    24364935.426
  23174120.690    -4394375.135 6  -3424185.939 7  23174143.654    23174143.294
  21358944.480      -20883.532 8   4618659.673 9  21358965.346    21358963.457
  20732395.541    -2577515.268 8  -2015272.684 9  20732416.167    20732414.368
  21666306.728     2080362.339 8   1621061.959 9  21666331.881    21666330.112
  22372913.804     3002555.342 7   2339652.959 8  22372932.391    22372931.012
 92  8  4  2 56 30.0000000  0  6 12 11 28 21 23 17
  24353779.279    -1343801.601 5    112389.06715  24353795.648    24353796.428
  23156001.654    -4489615.564 7  -3498399.198 7  23156020.031    23156019.221
  21360128.001      -14687.689 8   4623487.590 9  21360144.310    21360142.361
  20730282.454    -2588627.921 8  -2023931.880 9  20730301.521    20730299.932
  21675403.780     2128135.692 8   1658287.943 9  21675422.877    21675420.898
  22386811.583     3075587.746 7   2396561.297 8  22386830.020    22386829.181
 92  8  4  2 57  0.0000000  0  6 12 11 28 21 23 17
  24342705.126    -1401949.569 5    -31678.98115  24342730.608    24342731.328
  23137938.798    -4584538.436 7  -3572365.018 7  23137957.146    23137955.677
  21361422.025       -7876.764 8   4628794.804 9  21361440.762    21361438.724
  20728215.415    -2599483.754 8  -2032390.949 9  20728235.531    20728233.822
  21684517.471     2176032.480 8   1695610.119 9  21684537.467    21684535.339
  22400756.339     3148895.163 6   2453683.946 8  22400779.843    22400778.644
 92  8  4  2 57 30.0000000  0  6 12 11 28 21 23 17
  24331721.810    -1459701.231 5    -76680.193 5  24331742.045    24331742.195
  23119938.300    -4679138.669 6  -3646079.429 8  23119954.848    23119953.979
  21362835.906        -447.966 8   4634583.475 9  21362854.404    21362852.275
  20726195.923    -2610086.996 8  -2040653.205 9  20726218.078    20726216.099
  21693656.794     2224055.354 8   1733030.522 9  21693675.651    21693673.792
  22414759.075     3222461.649 6   2511008.454 8  22414779.131    22414778.532
 92  8  4  2 58  0.0000000  0  6 12 11 28 21 23 17
  24320802.739    -1517050.696 5   -121368.020 5  24320827.831    24320830.020
  23101995.391    -4773410.170 6  -3719537.671 8  23102015.507    23102014.878
  21364367.936        7600.931 8   4640855.351 9  21364385.983    21364384.005
  20724226.077    -2620455.420 8  -2048732.481 9  20724244.934    20724243.075
  21702819.261     2272214.141 8   1770556.842 9  21702840.456    21702838.208
  22428808.639     3296291.299 6   2568538.034 8  22428828.755    22428827.586
 92  8  4  2 58 30.0000000  0  6 12 11 28 21 23 17
  24309971.987    -1573984.215 5   -165731.728 5  24309993.302    24309995.250
  23084119.906    -4867336.350 7  -3792727.159 8  23084141.581    23084141.551
  21366016.075       16276.905 8   4647615.844 9  21366037.150    21366034.932
  20722297.032    -2630587.601 8  -2056627.684 9  20722316.669    20722314.990
  21712010.448     2320514.094 8   1808193.161 9  21712031.463    21712029.485
  22442908.867     3370399.233 7   2626284.445 8  22442930.842    22442930.632
 92  8  4  2 59  0.0000000  0  6 12 11 28 21 23 17
  24299221.039    -1630495.946 5   -209766.791 5  24299238.967    24299240.706
  23066313.254    -4960920.223 7  -3865649.249 8  23066333.370    23066333.580
  21367787.429       25579.036 8   4654864.255 9  21367807.395    21367805.146
  20720408.999    -2640490.737 8  -2064344.404 9  20720432.233    20720430.375
  21721226.758     2368947.863 8   1845933.763 9  21721247.953    21721245.914
  22457065.457     3444793.612 7   2684254.056 8  22457087.612    22457087.042
 92  8  4  2 59 30.0000000  0  6 12 11 28 21 23 17
  24288545.130    -1686586.269 5   -253473.464 5  24288565.636    24288567.555
  23048572.525    -5054152.944 7  -3938298.055 8  23048591.682    23048590.933
  21369674.172       35512.236 8   4662604.411 9  21369697.616    21369695.428
  20718570.762    -2650181.711 8  -2071895.806 9  20718588.210    20718586.171
  21730466.811     2417501.544 8   1883767.803 9  21730487.557    21730485.368
  22471276.159     3519479.675 6   2742450.968 8  22471299.903    22471299.573
 92  8  4  3  0  0.0000000  0  6 12 11 28 21 23 17
  24277953.283    -1742252.256 5   -296849.486 5  24277972.050    24277973.429
  23030893.734    -5147034.641 7  -4010673.328 7  23030916.908    23030915.799
  21371685.570       46067.965 8   4670829.652 9  21371706.136    21371704.217
  20716767.420    -2659657.703 8  -2079279.697 9  20716784.988    20716783.189
  21739728.209     2466172.932 8   1921693.560 9  21739749.015    21739747.306
  22485550.387     3594473.332 6   2800887.561 8  22485570.533    22485569.694
 92  8  4  3  0 30.0000000  0  6 12 11 28 21 23 17
  24267440.431    -1797490.351 5   -339892.088 5  24267461.146    24267462.375
  23013289.321    -5239561.571 7  -4082772.180 7  23013309.527    23013308.898
  21373812.418       57239.687 8   4679534.895 9  21373831.874    21373830.165
  20715005.480    -2668902.086 8  -2086483.116 9  20715025.746    20715024.007
  21749013.112     2514954.689 8   1959705.316 9  21749031.819    21749030.380
  22499878.608     3669772.180 6   2859561.962 7  22499899.264    22499899.204
 92  8  4  3  1  0.0000000  0  6 12 11 28 21 23 17
  24257007.803    -1852294.095 5   -382596.256 5  24257032.926    24257032.746
  22995750.054    -5331727.220 7  -4154589.499 7  22995770.799    22995770.469
  21376053.306       69033.920 8   4688725.206 9  21376076.630    21376074.052
  20713291.717    -2677909.172 8  -2093501.629 9  20713312.132    20713309.854
  21758317.140     2563856.848 8   1997810.900 9  21758338.036    21758336.417
  22514261.331     3745377.327 6   2918475.033 7  22514287.053    22514286.004
 92  8  4  3  1 30.0000000  0  6 12 11 28 21 23 17
  24246662.865    -1906655.654 5   -424955.884 5  24246688.467    24246687.867
  22978281.297    -5423523.351 7  -4226118.888 8  22978302.702    22978302.222
  21378423.046       81459.965 8   4698407.826 9  21378441.243    21378438.815
  20711625.860    -2686671.792 8  -2100329.640 9  20711644.657    20711642.378
  21767645.962     2612884.846 8   2036014.532 9  21767667.757    21767666.318
  22528714.296     3821289.124 6   2977627.061 7  22528732.523    22528730.724
 92  8  4  3  2  0.0000000  0  6 12 11 28 21 23 17
  24236407.804    -1960545.448 5   -466947.850 5  24236432.987    24236432.477
  22960889.617    -5514920.315 7  -4297337.242 8  22960910.422    22960910.243
  21380915.250       94551.149 8   4708608.737 9  21380932.309    21380930.660
  20710012.587    -2695142.626 8  -2106930.289 9  20710032.373    20710030.544
  21777005.903     2662073.423 8   2074343.289 9  21777028.207    21777026.498
  22543215.467     3897517.967 6   3037026.124 7  22543237.891    22543237.501
 92  8  4  3  2 30.0000000  0  6 12 11 28 21 23 17
  24226239.713     1969582.31015    470879.70015  24226251.735    24226252.454
  22943558.135    -5606000.462 7  -4368308.736 7  22943578.161    22943577.262
  21383519.338      108239.118 8   4719274.681 9  21383537.205    21383534.987
  20708438.346    -2703415.425 8  -2113376.629 9  20708458.013    20708456.334
  21786378.794     2711332.026 8   2112726.609 9  21786401.788    21786399.929
  22557768.232     3973966.356 6   3096596.261 7  22557785.950    22557785.110
 92  8  4  3  3  0.0000000  0  6 12 11 28 21 23 17
  24216098.604     1916370.793 5     42163.28515  24216126.994    24216126.724
  22926266.916    -5696864.134 7  -4439111.543 8  22926287.541    22926286.612
  21386217.230      122427.527 8   4730330.575 9  21386236.926    21386234.858
  20706878.586    -2711606.203 8  -2119759.052 9  20706899.991    20706897.653
  21795744.670     2760552.846 7   2151080.507 9  21795768.084    21795766.135
  22572339.974     4050525.009 6   3156252.326 7  22572354.634    22572353.645
 92  8  4  3  3 30.0000000  0  6 12 11 28 21 23 17
  24206060.953     1863599.100 5    -29414.46615  24206084.247    24206084.966
  22909045.997    -5787360.026 7  -4509627.787 8  22909066.863    22909065.484
  21389039.806      137256.204 8   4741885.373 9  21389058.513    21389056.504
  20705368.412    -2719568.969 8  -2125963.806 9  20705384.630    20705382.292
  21805134.769     2809878.683 7   2189516.215 9  21805154.346    21805152.367
  22586954.946     4127339.630 6   3216107.839 7  22586971.855    22586971.315
 92  8  4  3  4  0.0000000  0  6 12 11 28 21 23 17
  24196119.715     1811376.616 5    -70107.261 6  24196145.947    24196148.165
  22891916.066    -5877378.589 7  -4579772.077 7  22891936.572    22891935.793
  21392002.865      152817.690 8   4754011.201 9  21392020.103    21392017.884
  20703912.020    -2727202.351 8  -2131911.891 9  20703931.656    20703929.768
  21814562.073     2859426.843 7   2228125.167 9  21814583.028    21814581.080
  22601639.411     4204524.052 6   3276251.518 7  22601659.886    22601658.747
 92  8  4  3  4 30.0000000  0  6 12 11 28 21 23 17
  24186281.096     1759664.009 5   -110402.784 6  24186304.750    24186308.047
  22874870.677    -5966958.925 6  -4649574.908 8  22874890.103    22874889.563
  21395092.346      169054.141 8   4766662.970 9  21395109.584    21395107.156
  20702510.400    -2734560.163 8  -2137645.246 9  20702531.086    20702529.827
  21824026.641     2909156.128 7   2266875.257 9  21824045.797    21824044.089
  22616393.487     4282042.637 6   3336655.584 7  22616411.594    22616409.825
 92  8  4  3  5  0.0000000  0  6 12 11 28 21 23 17
  24176535.263     1708448.847 5   -150310.674 6  24176560.386    24176562.784
  22857904.762    -6056113.315 7  -4719045.830 8  22857924.638    22857924.008
  21398300.245      185933.318 8   4779815.558 9  21398321.530    21398319.462
  20701167.090    -2741640.092 8  -2143162.066 9  20701184.058    20701182.170
  21833522.897     2959064.438 7   2305764.840 9  21833543.103    21833540.944
  22631204.073     4359873.103 6   3397302.666 7  22631221.581    22631221.162
 92  8  4  3  5 30.0000000  0  6 12 11 28 21 23 17
  24166883.475     1657721.499 5   -189838.451 6  24166907.218    24166908.627
  22841020.660    -6144851.128 7  -4788192.135 8  22841038.288    22841037.299
  21401629.380      203444.247 8   4793460.424 9  21401653.933    21401651.865
  20699867.190    -2748451.501 8  -2148469.645 9  20699888.116    20699885.897
  21843053.419     3009146.994 8   2344790.198 9  21843074.015    21843071.107
  22646069.223     4438005.172 6   3458184.765 7  22646090.058    22646089.369
 92  8  4  3  6  0.0000000  0  6 12 11 28 21 23 17
  24157325.581     1607483.403 5   -228984.983 6  24157347.466    24157348.725
  22824212.287    -6233170.543 7  -4857012.457 8  22824231.833    22824231.653
  21405086.617      221592.707 8   4807602.069 9  21405107.752    21405105.594
  20698622.782    -2754999.592 8  -2153572.057 9  20698642.088    20698640.140
  21852615.299     3059393.589 8   2383943.376 9  21852635.565    21852633.497
  22660996.878     4516442.048 6   3519304.365 7  22661016.185    22661015.046
 92  8  4  3  6 30.0000000  0  6 12 11 28 21 23 17
  24147863.172     1557735.201 5   -267749.794 6  24147880.110    24147881.070
  22807488.304    -6321070.853 7  -4925506.179 8  22807504.973    22807504.523
  21408665.449      240384.951 8   4822245.355 9  21408683.587    21408681.458
  20697424.331    -2761294.462 8  -2158477.138 9  20697443.968    20697442.289
  21862200.234     3109775.211 8   2423201.768 9  21862223.048    21862220.560
  22675981.914     4595172.213 6   3580652.508 7  22675997.833    22675997.084
 92  8  4  3  7  0.0000000  0  6 12 11 28 21 23 17
  24138488.482     1508482.331 5   -306128.597 5  24138507.939    24138508.388
  22790838.911    -6408546.128 7  -4993668.710 8  22790859.027    22790858.247
  21412362.400      259814.821 8   4837385.497 9  21412380.657    21412378.709
  20696274.267    -2767342.350 8  -2163189.771 9  20696293.364    20696291.476
  21871812.000     3160282.925 8   2462558.421 9  21871834.154    21871832.685
  22691018.065     4674206.505 6   3642237.632 7  22691037.342    22691036.232
 92  8  4  3  7 30.0000000  0  6 12 11 28 21 23 17
  24129209.186     1459729.235 5   -344117.970 5  24129229.962    24129230.741
  22774274.598    -6495591.562 7  -5061496.311 8  22774294.474    22774293.934
  21416180.797      279878.967 8   4853019.883 9  21416199.234    21416196.716
  20695166.055    -2773155.674 8  -2167719.615 9  20695187.010    20695185.241
  21881444.541     3210903.500 7   2502003.027 9  21881466.816    21881465.347
  22706119.001     4753562.531 6   3704073.459 7  22706138.278    22706138.338
 92  8  4  3  8  0.0000000  0  6 12 11 28 21 23 17
  24120022.316     1411480.601 5   -381714.255 5  24120047.409    24120048.428
  22757794.707    -6582202.396 7  -5128985.259 8  22757813.264    22757812.544
  21420116.742      300570.752 8   4869143.344 9  21420136.438    21420134.370
  20694107.458    -2778727.067 8  -2172060.962 9  20694126.644    20694124.816
  21891100.886     3261637.647 7   2541536.115 9  21891121.242    21891119.983
  22721278.816     4833236.047 6   3766156.654 7  22721299.771    22721299.022
 92  8  4  3  8 30.0000000  0  6 12 11 28 21 23 17
  24110945.170     1363738.897 5   -418915.555 5  24110962.888    24110963.727
  22741394.620    -6668375.629 7  -5196133.219 8  22741414.706    22741414.346
  21424171.075      321881.156 8   4885748.838 9  21424191.821    21424190.022
  20693099.285    -2784039.401 8  -2176200.434 9  20693116.014    20693114.155
  21900781.305     3312496.856 7   2581166.661 9  21900799.412    21900797.973
  22736499.699     4913212.813 6   3828476.161 7  22736518.915    22736518.646
 92  8  4  3  9  0.0000000  0  6 12 11 28 21 23 17
  24101952.535     1316509.172 5   -455717.881 5  24101976.339    24101976.789
  22725080.124    -6754105.751 7  -5262935.895 8  22725100.810    22725100.780
  21428345.715      343812.030 8   4902837.830 9  21428365.141    21428363.613
  20692136.172    -2789065.269 8  -2180116.684 9  20692159.376    20692157.607
  21910487.055     3363506.432 7   2620914.385 9  21910506.182    21910504.743
  22751779.341     4993497.533 6   3891035.647 7  22751796.639    22751796.279
 92  8  4  3  9 30.0000000  0  6 12 11 28 21 23 17
  24093068.786     1269793.903 5   -492119.370 5  24093085.964    24093087.523
  22708852.539    -6839390.281 7  -5329391.352 9  22708871.905    22708871.755
  21432641.981      366386.642 8   4920428.427 9  21432661.167    21432659.219
  20691240.512    -2793793.246 8  -2183800.816 9  20691259.459    20691257.750
  21920220.327     3414669.935 8   2660782.055 9  21920242.572    21920240.743
  22767109.318     5074070.253 6   3953819.541 7  22767129.494    22767128.505
 92  8  4  3 10  0.0000000  0  6 12 11 28 21 23 17
  24084278.151     1223595.183 5   -528118.304 5  24084294.910    24084295.539
  22692709.164    -6924226.412 7  -5395497.417 9  22692727.991    22692728.051
  21437062.151      389615.719 8   4938528.993 9  21437081.367    21437079.689
  20690397.946    -2798220.547 8  -2187250.652 9  20690417.132    20690415.423
  21929989.544     3465995.732 7   2700776.179 9  21930009.420    21930007.472
  22782493.618     5154919.985 6   4016819.288 7  22782514.334    22782513.494
 92  8  4  3 10 30.0000000  0  6 12 11 28 21 23 17
  24075579.943     1177918.664 5   -563710.369 5  24075602.937    24075604.916
  22676649.342    -7008608.259 7  -5461249.495 9  22676671.047    22676670.777
  21441607.634      413498.974 8   4957139.305 9  21441626.011    21441624.542
  20689606.973    -2802357.043 8  -2190473.883 9  20689630.057    20689628.168
  21939787.301     3517484.280 7   2740897.115 9  21939807.238    21939805.259
  22797937.276     5236063.969 6   4080048.335 7  22797955.684    22797955.054
 92  8  4  3 11  0.0000000  0  6 12 11 28 21 23 17
  24066992.658     1132768.733 5   -598892.119 5  24067011.874    24067011.724
  22660681.497    -7092531.038 7  -5526643.847 9  22660700.683    22660700.923
  21446277.381      438046.139 8   4976266.958 9  21446297.107    21446295.339
  20688874.370    -2806225.708 8  -2193488.424 9  20688894.127    20688892.118
  21949613.689     3569135.312 7   2781144.660 9  21949635.873    21949634.134
  22813431.270     5317524.594 6   4143524.124 7  22813457.082    22813456.543
 92  8  4  3 11 30.0000000  0  6 12 11 28 21 23 17
  24058496.300     1088146.871 5   -633662.361 5  24058520.403    24058521.002
  22644796.004    -7175992.737 7  -5591678.914 9  22644818.428    22644818.548
  21451075.589      463242.699 7   4995900.622 9  21451091.958    21451090.339
  20688183.139    -2809851.037 8  -2196313.342 9  20688204.334    20688202.386
  21959472.124     3620936.183 7   2821508.959 9  21959493.349    21959491.520
  22828994.126     5399300.481 6   4207245.555 7  22829018.859    22829018.709
 92  8  4  3 12  0.0000000  0  6 12 11 28 21 23 17
  24050111.704     1044048.117 5   -668024.981 5  24050128.612    24050128.463
  22629003.147    -7258998.161 7  -5656358.445 9  22629023.053    22629022.903
  21455986.010      489058.127 8   5016016.527 9  21456004.597    21456002.948
  20687535.857    -2813251.572 8  -2198963.101 9  20687556.932    20687555.014
  21969358.440     3672878.826 7   2861983.745 9  21969377.866    21969376.217
  22844618.740     5481393.679 6   4271214.259 7  22844640.205    22844638.826
 92  8  4  3 12 30.0000000  0  6 12 11 28 21 23 17
  24041818.485     1000483.517 5   -701971.387 5  24041838.032    24041837.822
  22613297.560    -7341535.771 7  -5720673.439 9  22613316.777    22613316.327
  21461015.508      515486.501 8   5036610.053 9  21461033.975    21461032.057
  20686933.544    -2816420.206 8  -2201432.157 9  20686954.020    20686951.771
  21979268.439     3724963.215 7   2902568.977 9  21979289.185    21979287.686
  22860300.313     5563814.514 6   4335438.253 7  22860324.447    22860323.427
 92  8  4  3 13  0.0000000  0  6 12 11 28 21 23 17
  24033626.656      957455.418 5   -735499.720 5  24033649.980    24033650.610
  22597678.942    -7423602.510 7  -5784621.505 9  22597700.018    22597699.628
  21466160.966      542538.438 8   5057689.464 9  21466181.442    21466180.003
  20686378.808    -2819345.454 9  -2203711.565 9  20686397.305    20686395.506
  21989203.561     3777180.870 7   2943258.057 9  21989226.106    21989224.367
  22876046.882     5646548.489 6   4399906.264 7  22876068.467    22876067.448
 92  8  4  3 13 30.0000000  0  6 12 11 28 21 23 17
  24025543.802      914957.929 5   -768614.606 5  24025563.558    24025563.708
  22582150.532    -7505203.907 7  -5848206.980 9  22582171.458    22582171.338
  21471422.863      570198.014 8   5079242.370 9  21471445.138    21471443.549
  20685870.150    -2822017.892 9  -2205793.968 9  20685888.617    20685886.968
  21999162.787     3829518.272 7   2984040.452 9  21999185.391    21999183.532
  22891844.326     5729571.449 6   4464599.446 7  22891866.631    22891866.031
 92  8  4  3 14  0.0000000  0  6 12 11 28 21 23 17
  24017554.933      873000.068 5   -801309.001 5  24017578.017    24017579.426
  22566712.300    -7586330.440 7  -5911422.429 9  22566733.675    22566733.406
  21476808.815      598491.605 8   5101289.310 9  21476829.260    21476827.252
  20685411.498    -2824423.560 8  -2207668.498 9  20685430.894    20685428.976
  22009147.944     3881981.547 7   3024920.933 9  22009168.450    22009166.471
  22907700.889     5812890.104 6   4529523.035 7  22907722.054    22907721.305
 92  8  4  3 14 30.0000000  0  6 12 11 28 21 23 17
  24009681.993      831583.715 5   -833581.436 5  24009696.863    24009697.582
  22551365.894    -7666980.003 7  -5974266.217 9  22551386.910    22551386.790
  21482313.754      627428.753 7   5123837.732 9  21482335.459    21482333.840
  20685008.577    -2826553.041 8  -2209327.820 9  20685025.785    20685023.866
  22019153.577     3934571.292 7   3065899.956 9  22019176.122    22019174.563
  22923615.311     5896501.999 6   4594675.150 7  22923632.939    22923632.459
 92  8  4  3 15  0.0000000  0  6 12 11 28 21 23 17
  24001892.486      790714.780 5   -865427.355 5  24001920.546    24001921.266
  22536112.394    -7747145.769 7  -6036732.999 9  22536131.581    22536131.461
  21487947.603      657020.275 7   5146896.046 9  21487966.310    21487964.871
  20684654.162    -2828399.337 8  -2210766.484 9  20684674.368    20684672.509
  22029189.609     3987301.081 7   3106988.096 9  22029210.475    22029208.976
  22939576.232     5980407.116 6   4660055.715 7  22939599.915    22939599.106
 92  8  4  3 15 30.0000000  0  6 12 11 28 21 23 17
  23994218.518      750348.172 5   -896881.812 5  23994238.634    23994238.394
  22520940.138    -7826872.568 7  -6098857.736 9  22520959.894    22520959.774
  21493690.458      687207.083 8   5170418.218 9  21493711.323    21493709.435
  20684347.055    -2830020.879 8  -2212030.016 9  20684365.762    20684364.173
  22039241.980     4040134.465 7   3148156.981 9  22039264.165    22039262.756
  22955592.524     6064553.076 6   4725623.979 7  22955612.250    22955611.411
 92  8  4  3 16  0.0000000  0  6 12 11 28 21 23 17
  23986631.551      710497.519 5   -927934.250 5  23986655.654    23986657.363
  22505856.020    -7906146.184 7  -6160629.347 8  22505875.447    22505873.888
  21499552.120      718008.101 8   5194419.005 9  21499573.045    21499570.347
  20684081.498    -2831419.893 8  -2213120.149 9  20684099.516    20684097.747
  22049319.054     4093088.271 7   3189419.699 9  22049341.239    22049339.440
  22971654.804     6148944.416 6   4791383.439 7  22971671.443    22971670.334
 92  8  4  3 16 30.0000000  0  6 12 11 28 21 23 17
  23979150.230      671182.515 5   -958569.258 5  23979174.213    23979174.033
  22490857.853    -7984946.361 7  -6222032.044 9  22490879.408    22490879.228
  21505530.491      749427.664 8   5218901.777 9  21505551.746    21505549.918
  20683860.701    -2832579.220 8  -2214023.501 9  20683879.078    20683877.250
  22059427.906     4146193.269 7   3230800.226 9  22059446.493    22059444.904
  22987760.465     6233587.815 6   4857339.326 7  22987778.362    22987777.223
 92  8  4  3 17  0.0000000  0  6 12 11 28 21 23 17
  23971774.526      632412.647 5   -988779.505 5  23971796.561    23971796.710
  22475954.810    -8063262.996 7  -6283057.948 9  22475976.485    22475976.096
  21511628.959      781468.110 8   5243868.365 9  21511648.686    21511646.587
  20683681.935    -2833505.866 9  -2214745.561 9  20683702.801    20683701.092
  22069559.362     4199451.517 7   3272300.158 9  22069581.247    22069579.778
  23003914.302     6318486.154 6   4923493.837 7  23003934.388    23003933.518
 92  8  4  3 17 30.0000000  0  6 12 11 28 21 23 17
  23964505.848      594193.926 5  -1018560.286 5  23964523.925    23964525.334
  22461146.292    -8141089.595 7  -6343702.003 9  22461166.528    22461165.778
  21517839.640      814115.985 8   5269308.273 9  21517860.985    21517858.826
  20683547.958    -2834205.081 8  -2215290.396 9  20683569.483    20683567.744
  22079722.986     4252855.899 7   3313913.962 9  22079743.672    22079742.143
  23020116.885     6403637.908 6   4989845.834 7  23020137.780    23020137.480
 92  8  4  3 18  0.0000000  0  6 12 11 28 21 23 17
  23957339.639      556546.139 5  -1047896.198 5  23957359.155    23957359.905
  22446432.478    -8218405.827 7  -6403948.375 9  22446453.584    22446453.044
  21524169.637      847379.863 7   5295228.184 9  21524191.133    21524189.424
  20683462.127    -2834658.942 8  -2215644.043 9  20683483.053    20683481.584
  22089918.328     4306424.243 7   3355655.519 9  22089937.784    22089935.776
  23036381.045     6489071.465 6   5056417.405 7  23036395.135    23036395.016
 92  8  4  3 18 30.0000000  0  6 12 11 28 21 23 17
  23950271.762      519385.470 5  -1076852.540 5  23950287.681    23950289.180
  22431802.336    -8295294.820 7  -6463861.845 9  22431822.273    22431821.493
  21530597.338      881155.563 7   5321546.917 9  21530618.203    21530616.374
  20683406.995    -2834951.922 9  -2215872.322 9  20683427.621    20683425.792
  22100124.612     4360064.778 7   3397453.328 9  22100144.998    22100143.079
  23052673.626     6574721.543 6   5123157.694 7  23052693.742    23052694.072
 92  8  4  3 19  0.0000000  0  6 12 11 28 21 23 17
  23943300.328      482787.399 5  -1105370.468 5  23943323.862    23943324.731
  22417266.030    -8371680.635 7  -6523383.225 9  22417286.655    22417285.726
  21537137.610      915507.479 8   5348314.647 9  21537155.567    21537153.529
  20683395.034    -2835002.081 9  -2215911.393 9  20683418.148    20683416.109
  22110354.880     4413823.342 7   3439343.112 9  22110375.296    22110373.047
  23069029.853     6660668.836 6   5190129.577 7  23069049.429    23069049.130
 92  8  4  3 19 30.0000000  0  6 12 11 28 21 23 17
  23936455.707      446787.389 5  -1133422.369 5  23936473.154    23936473.424
  22402831.982    -8447527.056 7  -6582484.308 9  22402853.267    22402852.578
  21543790.244      950478.858 8   5375565.066 9  21543810.360    21543808.292
  20683440.602    -2834761.423 9  -2215723.856 9  20683463.656    20683462.157
  22120616.716     4467732.815 7   3481350.492 9  22120633.534    22120631.945
  23085453.053     6746955.751 6   5257366.120 7  23085469.272    23085469.332
 92  8  4  3 20  0.0000000  0  6 12 11 28 21 23 17
  23929714.244      411356.078 5  -1161031.155 5  23929730.432    23929731.182
  22388496.057    -8522862.796 7  -6641187.451 9  22388517.402    22388516.652
  21550560.757      986061.978 8   5403292.174 9  21550581.863    21550579.644
  20683540.493    -2834259.601 8  -2215332.807 9  20683558.840    20683557.131
  22130895.550     4521768.582 7   3523456.284 9  22130916.235    22130914.617
  23101928.927     6833562.377 6   5324851.759 7  23101950.183    23101949.493
 92  8  4  3 20 30.0000000  0  6 12 11 28 21 23 17
  23923061.729      376425.899 5  -1188249.463 5  23923082.804    23923084.573
  22374244.133    -8597754.748 7  -6699544.781 9  22374265.928    22374265.179
  21557437.367     1022198.987 8   5431450.878 9  21557458.232    21557456.254
  20683674.860    -2833555.746 9  -2214784.342 9  20683693.387    20683691.019
  22141185.986     4575843.802 7   3565592.816 9  22141206.312    22141204.903
  23118451.839     6920405.237 6   5392521.507 7  23118475.313    23118475.642
 92  8  4  3 21  0.0000000  0  6 12 11 28 21 23 17
  23916531.260      342129.647 5  -1214973.782 5  23916556.832    23916557.612
  22360102.833    -8672069.610 7  -6757452.438 9  22360124.178    22360123.788
  21564446.574     1059034.222 8   5460153.660 9  21564467.770    21564465.731
  20683871.014    -2832519.204 9  -2213976.626 9  20683890.620    20683888.432
  22151511.078     4630093.514 7   3607865.306 9  22151529.725    22151527.896
  23135047.660     7007600.589 6   5460465.891 7  23135067.896    23135067.986
 92  8  4  3 21 30.0000000  0  6 12 11 28 21 23 17
  23910080.206      308207.199 5  -1241406.818 5  23910101.701    23910102.600
  22346026.198    -8746066.566 7  -6815112.386 9  22346043.286    22346042.477
  21571544.550     1096312.938 7   5489202.009 9  21571561.908    21571559.870
  20684078.321    -2831432.539 9  -2213129.863 9  20684097.327    20684094.929
  22161822.559     4684284.679 7   3650092.184 9  22161842.166    22161840.547
  23151659.879     7094880.378 6   5528476.078 7  23151676.398    23151676.848
 92  8  4  3 22  0.0000000  0  6 12 11 28 21 23 17
  23903734.259      274865.657 5  -1267387.194 5  23903757.253    23903756.833
  22332041.120    -8819538.159 7  -6872362.957 9  22332061.985    22332061.386
  21578757.617     1134225.019 8   5518743.890 9  21578776.144    21578774.046
  20684330.506    -2830102.956 8  -2212093.815 9  20684350.202    20684348.134
  22172160.363     4738628.652 7   3692438.118 9  22172183.477    22172181.828
  23168317.847     7182434.708 6   5596700.174 7  23168337.933    23168337.424
 92  8  4  3 22 30.0000000  0  6 12 11 28 21 23 17
  23897525.497      242228.525 5  -1292818.686 5  23897546.333    23897546.303
  22318184.263    -8892359.887 7  -6929107.134 9  22318204.319    22318203.959
  21586111.196     1172871.168 8   5548857.769 9  21586130.443    21586128.045
  20684651.194    -2828404.339 8  -2210770.214 9  20684673.349    20684671.370
  22182554.077     4793235.797 7   3734989.135 9  22182574.943    22182572.964
  23185051.753     7270376.069 6   5665225.859 7  23185073.038    23185072.438
 92  8  4  3 23  0.0000000  0  6 12 11 28 21 23 17
  23891438.661      210235.771 5  -1317748.072 5  23891459.077    23891459.137
  22304439.438    -8964591.243 7  -6985391.283 9  22304459.104    22304458.535
  21593592.337     1212181.646 7   5579489.297 9  21593611.044    21593608.376
  20685033.849    -2826407.607 8  -2209214.313 9  20685053.276    20685051.627
  22192984.696     4848042.634 7   3777695.749 9  22193004.333    22193002.534
  23201855.030     7358651.849 6   5734012.146 7  23201871.399    23201870.889
 92  8  4  3 23 30.0000000  0  6 12 11 28 21 23 17
  23885468.894      178861.736 5  -1342195.336 6  23885487.991    23885489.130
  22290801.999    -9036257.188 7  -7041234.849 9  22290821.515    22290821.246
  21601190.397     1252119.377 7   5610609.611 9  21601210.393    21601208.535
  20685465.820    -2824139.737 8  -2207447.126 9  20685484.647    20685482.848
  22203443.586     4903013.577 7   3820530.237 9  22203464.721    22203462.922
  23218706.634     7447233.566 6   5803036.814 7  23218727.709    23218727.260
 92  8  4  3 24  0.0000000  0  6 12 11 28 21 23 17
  23879615.446      148100.934 6  -1366164.772 6  23879634.513    23879635.562
  22277271.046    -9107362.318 7  -7096641.421 9  22277290.593    22277290.173
  21608907.175     1292663.664 7   5642202.542 9  21608925.642    21608924.293
  20685945.158    -2821596.393 8  -2205465.289 9  20685968.662    20685966.863
  22213931.135     4958112.667 7   3863464.584 8  22213949.603    22213948.224
  23235620.744     7536119.169 6   5872298.275 7  23235642.030    23235642.000
 92  8  4  3 24 30.0000000  0  6 12 11 28 21 23 17
  23873875.620      117940.621 6  -1389666.292 6  23873895.256    23873895.646
  22263842.413    -9177918.793 8  -7151620.467 9  22263863.998    22263863.728
  21616735.146     1333790.069 7   5674249.074 9  21616752.414    21616750.315
  20686484.755    -2818783.504 8  -2203273.426 9  20686503.971    20686502.233
  22224432.386     5013314.026 7   3906478.619 9  22224453.971    22224452.622
  23252596.522     7625305.905 6   5941794.372 7  23252613.940    23252612.471
 92  8  4  3 25  0.0000000  0  6 12 11 28 21 23 17
  23868253.192       88374.754 6  -1412704.588 6  23868268.751    23868269.741
  22250522.514    -9247931.788 8  -7206176.025 9  22250541.521    22250540.681
  21624670.712     1375493.383 7   5706745.141 9  21624687.860    21624685.822
  20687067.521    -2815719.238 8  -2200885.678 9  20687087.158    20687085.359
  22234963.375     5068632.263 7   3949583.714 8  22234981.483    22234979.234
  23269627.612     7714790.382 6   6011522.485 7  23269642.692    23269642.002
 92  8  4  3 25 30.0000000  0  6 12 11 28 21 23 17
  23862732.814       59405.079 6  -1435278.311 6  23862756.557    23862756.108
  22237303.315    -9317398.821 7  -7260306.159 9  22237322.172    22237321.693
  21632712.765     1417761.163 7   5739681.055 9  21632731.442    21632729.133
  20687700.233    -2812403.646 8  -2198302.090 9  20687717.951    20687716.302
  22245514.960     5124084.766 7   3992793.448 8  22245533.278    22245532.109
  23286711.975     7804568.974 6   6081479.796 7  23286726.934    23286725.975
 92  8  4  3 26  0.0000000  0  6 12 11 28 21 23 17
  23857335.380       31037.241 5  -1457383.066 6  23857358.285    23857358.404
  22224188.744    -9386313.496 7  -7314005.861 9  22224207.871    22224207.421
  21640862.593     1460585.656 7   5773050.759 9  21640880.640    21640878.572
  20688379.863    -2808823.675 8  -2195512.494 9  20688399.499    20688397.311
  22256092.238     5179676.635 7   4036111.766 8  22256111.665    22256110.136
  23303846.553     7894647.083 6   6151670.495 7  23303868.138    23303867.838
 92  8  4  3 26 30.0000000  0  6 12 11 28 21 23 17
  23852052.138        3272.174 5  -1479018.154 6  23852074.802    23852074.652
  22211177.692    -9454673.822 7  -7367273.609 9  22211199.247    22211199.067
  21649118.157     1503980.866 7   5806865.184 9  21649138.483    21649136.565
  20689110.457    -2804983.876 8  -2192520.438 9  20689130.303    20689127.995
  22266702.193     5235431.098 7   4079556.793 8  22266721.739    22266719.701
  23321045.016     7985012.874 6   6222085.357 7  23321063.933    23321064.143
 92  8  4  3 27  0.0000000  0  6 12 11 28 21 23 17
  23846884.316      -23893.722 6  -1500186.351 6  23846905.571    23846905.031
  22198275.524    -9522483.083 8  -7420111.972 9  22198296.029    22198294.830
  21657484.016     1547956.229 7   5841131.678 9  21657506.860    21657505.031
  20689889.108    -2800893.675 9  -2189333.265 9  20689908.684    20689906.736
  22277341.977     5291346.425 7   4123127.160 8  22277362.273    22277360.294
  23338293.336     8075652.777 6   6292713.826 7  23338312.762    23338312.373
 92  8  4  3 27 30.0000000  0  6 12 11 28 21 23 17
  23841824.778      -50459.582 6  -1520886.955 6  23841850.380    23841849.091
  22185476.484    -9589739.193 8  -7472519.294 9  22185497.440    22185496.271
  21665966.733     1592514.130 7   5875852.088 9  21665985.890    21665983.372
  20690718.274    -2796535.536 9  -2185937.295 9  20690737.880    20690735.812
  22288009.642     5347401.664 7   4166806.547 9  22288029.338    22288027.570
  23355583.926     8166549.374 6   6363542.286 6  23355609.948    23355609.108
 92  8  4  3 28  0.0000000  0  6 12 11 28 21 23 17
  23836883.929      -76424.110 6  -1541119.007 5  23836908.302    23836907.702
  22172785.160    -9656440.146 8  -7524494.043 9  22172804.677    22172803.717
  21674560.404     1637670.298 7   5911038.677 9  21674578.691    21674576.383
  20691598.914    -2791909.732 8  -2182332.774 9  20691618.101    20691616.212
  22298701.260     5403590.351 7   4210589.937 8  22298721.436    22298719.937
  23372932.466     8257689.418 6   6434560.468 6  23372953.061    23372952.732
 92  8  4  3 28 30.0000000  0  6 12 11 28 21 23 17
  23832060.838     -101788.163 5  -1560883.150 6  23832081.253    23832081.823
  22160196.995    -9722585.843 8  -7576036.102 9  22160217.111    22160216.721
  21683266.917     1683431.845 7   5946697.007 9  21683287.333    21683285.054
  20692525.693    -2787030.352 8  -2178530.640 9  20692546.618    20692544.549
  22309418.211     5459907.818 7   4254473.678 9  22309437.848    22309437.248
  23390316.651     8349067.708 6   6505764.286 6  23390341.923    23390341.054
 92  8  4  3 29  0.0000000  0  6 12 11 28 21 23 17
  23827349.089     -126550.537 5  -1580178.479 6  23827369.176    23827370.645
  22147716.515    -9788174.451 8  -7627144.076 9  22147736.391    22147735.402
  21692085.732     1729782.393 7   5982814.280 9  21692107.407    21692105.008
  20693502.986    -2781895.488 8  -2174529.433 9  20693523.792    20693522.023
  22320151.501     5516334.847 7   4298442.794 9  22320175.754    22320174.765
  23407760.704     8440679.204 6   6577149.827 6  23407775.364    23407775.035
 92  8  4  3 29 30.0000000  0  6 12 11 28 21 23 17
  23822750.123     -150709.878 5  -1599003.898 6  23822771.978    23822773.357
  22135341.382    -9853203.566 8  -7677816.094 9  22135361.648    22135360.599
  21701014.750     1776707.656 7   6019379.394 9  21701036.935    21701035.436
  20694526.987    -2776513.109 8  -2170335.368 9  20694548.092    20694545.934
  22330913.570     5572865.227 7   4342492.433 9  22330933.566    22330932.367
  23425231.110     8532519.177 6   6648713.418 6  23425251.856    23425251.046
 92  8  4  3 30  0.0000000  0  6 12 11 28 21 23 17
  23818277.430     -174214.711 5  -1617319.309 6  23818299.494    23818299.824
  22123082.569    -9917620.920 7  -7728011.406 9  22123103.224    22123102.505
  21710060.118     1824241.691 7   6056418.884 9  21710082.303    21710080.204
  20695606.810    -2770852.242 9  -2165924.289 9  20695625.427    20695622.968
  22341700.343     5629552.495 7   4386664.329 9  22341720.849    22341718.960
  23442764.172     8624654.639 6   6720507.262 6  23442783.509    23442783.479
 92  8  4  3 30 30.0000000  0  6 12 11 28 21 23 17
  23813888.648     -197304.198 6  -1635311.073 6  23813906.276    23813906.366
  22110896.425    -9981664.944 7  -7777915.808 9  22110916.391    22110915.492
  21719173.359     1872128.208 7   6093733.020 9  21719194.794    21719192.786
  20696690.979    -2765158.809 9  -2161487.834 9  20696708.697    20696706.688
  22352470.057     5686141.524 7   4430759.669 8  22352489.693    22352487.655
  23460314.622     8716856.131 6   6792352.559 6  23460329.672    23460329.252
